Stations météo

réclame
Mon MeteoGroup
Trapani/Birgi, Italie (16429): Température de l'air & dewpoint: 13.01.2018 23:00:00 - 19.01.2018 23:00:00 (CET)Trapani/Birgi, Italie (16429): Vitesse du vent: 13.01.2018 23:00:00 - 19.01.2018 23:00:00 (CET)Trapani/Birgi, Italie (16429): Direction du vent: 13.01.2018 23:00:00 - 19.01.2018 23:00:00 (CET)Trapani/Birgi, Italie (16429): reduced air pressure: 13.01.2018 23:00:00 - 19.01.2018 23:00:00 (CET)Trapani/Birgi, Italie (16429): visibility: 13.01.2018 23:00:00 - 19.01.2018 23:00:00 (CET)Trapani/Birgi, Italie (16429): Ensoleillement: 13.01.2018 23:00:00 - 19.01.2018 23:00:00 (CET)
Date & Time tt [°C] td [°C] ff [km/h] ff [knt] dd ppp [hPa] vv [km] sd [min]
19.01.2018 23:00:00 10,4 9,0 13 7 SE 1016,1 12 -
19.01.2018 22:00:00 10,4 9,2 13 7 SE 1015,9 12 -
19.01.2018 21:00:00 10,4 9,6 13 7 SE 1016,0 12 -
19.01.2018 20:00:00 10,8 10,0 11 6 SE 1015,9 12 -
19.01.2018 19:00:00 11,2 10,1 9 5 SSE 1015,4 12 -
19.01.2018 18:00:00 12,6 10,8 15 8 SSE 1015,1 16 -
19.01.2018 17:00:00 13,0 10,5 21 11 S 1015,3 20 24
19.01.2018 16:00:00 13,8 11,0 26 14 S 1015,1 20 30
19.01.2018 15:00:00 14,4 10,6 22 12 S 1015,1 20 48
19.01.2018 14:00:00 14,6 10,6 22 12 S 1016,0 20 54
19.01.2018 13:00:00 15,2 11,0 28 15 S 1016,7 20 48
19.01.2018 12:00:00 14,2 10,4 24 13 S 1017,5 20 60
19.01.2018 11:00:00 13,4 10,2 22 12 S 1018,3 20 48
19.01.2018 10:00:00 13,0 10,0 15 8 SSE 1018,4 20 42
19.01.2018 09:00:00 10,6 8,7 13 7 SE 1018,4 20 36
19.01.2018 08:00:00 8,4 6,9 13 7 ESE 1018,2 20 0
19.01.2018 07:00:00 8,4 7,2 13 7 SE 1018,4 16 0
19.01.2018 06:00:00 8,0 7,1 15 8 SE 1018,9 12 -
19.01.2018 05:00:00 8,2 7,6 11 6 SE 1019,6 12 -
19.01.2018 04:00:00 8,2 7,4 9 5 SE 1019,6 12 -
19.01.2018 03:00:00 9,6 8,4 8 4 ESE 1020,5 12 -
19.01.2018 02:00:00 9,2 8,0 9 5 SE 1020,6 12 -
19.01.2018 01:00:00 8,2 6,5 11 6 SE 1021,2 12 -
19.01.2018 00:00:00 8,4 8,1 9 5 SE 1021,5 12 -
18.01.2018 23:00:00 8,2 7,9 11 6 SE 1021,8 12 -
18.01.2018 22:00:00 8,0 7,7 9 5 ESE 1021,8 12 -
18.01.2018 21:00:00 7,6 7,3 9 5 SE 1022,2 10 -
18.01.2018 20:00:00 9,4 8,2 9 5 SE 1022,2 12 -
18.01.2018 19:00:00 11,0 8,6 8 4 SW 1022,6 12 0
18.01.2018 18:00:00 11,2 9,0 9 5 SW 1022,5 16 18
18.01.2018 17:00:00 12,4 8,1 9 5 SW 1022,6 25 60
18.01.2018 16:00:00 14,6 8,1 8 4 WNW 1023,0 25 60
18.01.2018 15:00:00 14,6 7,9 13 7 W 1023,1 25 60
18.01.2018 14:00:00 14,4 7,7 11 6 WNW 1022,9 25 60
18.01.2018 13:00:00 14,0 6,4 13 7 NW 1023,4 25 60
18.01.2018 12:00:00 14,0 6,6 13 7 NNW 1023,9 25 60
18.01.2018 11:00:00 14,0 7,1 18 10 NNW 1024,0 25 60
18.01.2018 10:00:00 13,0 5,9 15 8 NNW 1023,6 25 60
18.01.2018 09:00:00 12,4 6,0 13 7 NNW 1022,9 25 24
18.01.2018 08:00:00 12,6 6,7 13 7 NNW 1022,2 25 6
18.01.2018 07:00:00 12,0 5,6 15 8 N 1021,7 15 0
18.01.2018 06:00:00 12,0 6,7 18 10 NNW 1020,6 12 -
18.01.2018 05:00:00 12,2 6,5 22 12 NNW 1020,5 12 -
18.01.2018 04:00:00 12,2 6,5 24 13 NNW 1020,2 10 -
18.01.2018 03:00:00 12,2 6,5 26 14 NNW 1020,2 12 -
18.01.2018 02:00:00 12,2 6,0 24 13 NNW 1019,7 12 -
18.01.2018 01:00:00 12,2 6,1 26 14 NNW 1019,7 12 -
18.01.2018 00:00:00 12,2 6,0 29 16 NNW 1019,3 12 -
17.01.2018 23:00:00 13,0 6,1 34 18 N 1018,4 12 -
17.01.2018 22:00:00 13,0 5,7 29 16 NNW 1017,5 12 -
17.01.2018 21:00:00 13,8 7,1 31 17 WNW 1016,5 12 -
17.01.2018 20:00:00 13,8 10,4 39 21 WNW 1015,7 12 -
17.01.2018 19:00:00 14,0 10,2 39 21 WNW 1015,2 14 -
17.01.2018 18:00:00 14,0 10,8 35 19 WNW 1014,6 16 0
17.01.2018 17:00:00 14,2 10,8 42 23 W 1014,3 16 60
17.01.2018 16:00:00 15,4 13,1 35 19 W 1014,1 16 60
17.01.2018 15:00:00 15,8 14,2 31 17 WSW 1013,8 14 60
17.01.2018 14:00:00 15,4 13,6 41 22 W 1014,1 16 60
17.01.2018 13:00:00 16,2 14,0 34 18 WSW 1014,3 16 60
17.01.2018 12:00:00 15,8 13,8 42 23 WSW 1015,1 14 60
17.01.2018 11:00:00 15,2 13,2 35 19 W 1016,3 14 30
17.01.2018 10:00:00 14,8 13,0 37 20 W 1016,5 14 0
17.01.2018 09:00:00 14,2 11,0 37 20 W 1016,2 14 0
17.01.2018 08:00:00 14,0 12,4 31 17 W 1016,1 14 0
17.01.2018 07:00:00 13,8 11,7 28 15 W 1016,3 15 0
17.01.2018 06:00:00 13,8 11,1 24 13 WSW 1017,1 15 -
17.01.2018 05:00:00 13,8 11,1 29 16 W 1017,9 15 -
17.01.2018 04:00:00 13,8 12,2 22 12 WSW 1018,9 15 -
17.01.2018 03:00:00 13,8 11,9 29 16 WSW 1019,2 15 -
17.01.2018 02:00:00 13,6 11,8 28 15 WSW 1020,1 15 -
17.01.2018 01:00:00 13,6 11,5 24 13 WSW 1020,2 15 -
17.01.2018 00:00:00 13,6 11,1 28 15 W 1021,1 15 -
16.01.2018 23:00:00 13,2 11,1 28 15 WSW 1021,1 10 -
16.01.2018 22:00:00 13,6 11,8 34 18 W 1021,6 15 -
16.01.2018 21:00:00 13,8 12,2 24 13 WSW 1022,0 15 -
16.01.2018 20:00:00 13,8 11,1 35 19 W 1022,0 18 -
16.01.2018 19:00:00 13,0 9,6 26 14 W 1021,8 12 -
16.01.2018 18:00:00 13,0 9,6 26 14 W 1021,9 12 -
16.01.2018 17:00:00 14,0 11,2 24 13 W 1022,1 18 0
16.01.2018 16:00:00 15,0 11,6 28 15 W 1022,2 20 60
16.01.2018 15:00:00 15,0 11,6 31 17 W 1022,1 20 60
16.01.2018 14:00:00 15,0 11,6 28 15 W 1022,9 20 18
16.01.2018 13:00:00 14,2 11,2 22 12 W 1023,5 20 0
16.01.2018 12:00:00 14,0 10,6 22 12 W 1024,4 20 12
16.01.2018 11:00:00 13,8 9,7 24 13 WNW 1025,0 20 0
16.01.2018 10:00:00 13,2 8,9 16 9 W 1025,0 20 0
16.01.2018 09:00:00 13,0 -14,8 21 11 W 1024,3 20 18
16.01.2018 08:00:00 12,0 8,7 22 12 W 1023,9 20 0
16.01.2018 07:00:00 12,2 9,4 21 11 W 1025,5 12 0
16.01.2018 06:00:00 12,2 9,9 18 10 W 1024,2 12 -
16.01.2018 05:00:00 12,0 9,5 18 10 W 1025,4 12 -
16.01.2018 04:00:00 11,8 9,5 18 10 W 1025,4 12 -
16.01.2018 03:00:00 9,0 7,1 4 2 N 1025,8 12 -
16.01.2018 02:00:00 9,0 7,3 4 2 N 1026,0 12 -
16.01.2018 01:00:00 9,0 7,1 4 2 SSW 1026,0 12 -
16.01.2018 00:00:00 8,8 7,1 9 5 SE 1026,1 12 -
15.01.2018 23:00:00 8,2 6,8 9 5 SSE 1025,4 12 -
15.01.2018 22:00:00 8,6 7,7 9 5 SSE 1025,4 12 -
15.01.2018 21:00:00 8,8 7,9 9 5 SE 1025,3 12 -
15.01.2018 20:00:00 11,2 10,4 8 4 SE 1024,9 12 -
15.01.2018 19:00:00 12,0 11,2 4 2 S 1024,2 20 -
15.01.2018 18:00:00 13,0 11,9 8 4 SW 1024,0 20 -
15.01.2018 17:00:00 14,0 12,4 8 4 WSW 1023,5 20 12
15.01.2018 16:00:00 14,0 12,4 13 7 WSW 1023,5 20 12
15.01.2018 15:00:00 14,8 12,8 13 7 SSW 1023,2 20 6
15.01.2018 14:00:00 14,8 11,8 18 10 S 1023,9 20 42
15.01.2018 13:00:00 14,6 11,2 16 9 S 1024,2 20 18
15.01.2018 12:00:00 13,2 10,5 13 7 SSE 1024,6 20 6
15.01.2018 11:00:00 12,0 10,4 15 8 SE 1024,7 18 6
15.01.2018 10:00:00 11,4 9,5 13 7 ESE 1024,1 20 6
15.01.2018 09:00:00 10,0 8,3 11 6 ESE 1023,2 20 0
15.01.2018 08:00:00 8,6 7,8 13 7 SE 1023,3 20 0
15.01.2018 07:00:00 9,0 8,2 11 6 SE 1022,8 14 0
15.01.2018 06:00:00 8,6 7,8 9 5 ESE 1022,1 12 -
15.01.2018 05:00:00 8,6 7,8 8 4 ESE 1022,0 12 -
15.01.2018 04:00:00 8,6 8,2 11 6 ESE 1022,3 12 -
15.01.2018 03:00:00 8,0 7,2 11 6 ESE 1022,2 12 -
15.01.2018 02:00:00 9,0 7,4 9 5 E 1022,3 12 -
15.01.2018 01:00:00 8,8 7,3 11 6 ESE 1022,6 12 -
15.01.2018 00:00:00 8,4 7,2 11 6 ESE 1022,4 12 -
14.01.2018 23:00:00 8,2 7,4 11 6 SE 1022,2 12 -
14.01.2018 22:00:00 10,0 8,4 13 7 ESE 1021,9 12 -
14.01.2018 21:00:00 10,0 8,8 11 6 ESE 1021,8 12 -
14.01.2018 20:00:00 10,0 8,8 11 6 ESE 1021,6 12 -
14.01.2018 19:00:00 9,8 8,1 11 6 SE 1021,4 12 -
14.01.2018 18:00:00 10,0 8,1 13 7 SSE 1021,1 20 12
14.01.2018 17:00:00 13,0 8,5 18 10 S 1020,7 20 60
14.01.2018 16:00:00 14,4 7,5 24 13 S 1020,5 20 60
14.01.2018 15:00:00 14,0 9,7 22 12 SSE 1020,5 20 60
14.01.2018 14:00:00 14,0 8,6 22 12 S 1020,5 20 60
14.01.2018 13:00:00 14,6 10,2 22 12 S 1021,1 20 60
14.01.2018 12:00:00 14,2 10,8 21 11 SSE 1021,8 20 60
14.01.2018 11:00:00 13,8 10,0 22 12 SE 1021,9 20 48
14.01.2018 10:00:00 11,2 8,4 16 9 ESE 1021,5 20 18
14.01.2018 09:00:00 9,4 7,5 15 8 SE 1021,2 20 0
14.01.2018 08:00:00 7,8 6,4 15 8 SE 1020,8 20 -
14.01.2018 07:00:00 8,0 6,5 8 4 ESE 1020,4 16 -
14.01.2018 06:00:00 7,4 6,2 9 5 ESE 1020,3 14 -
14.01.2018 05:00:00 7,2 6,3 9 5 ESE 1020,4 16 -
14.01.2018 04:00:00 7,4 6,5 11 6 ESE 1020,5 12 -
14.01.2018 03:00:00 7,4 6,5 9 5 ESE 1020,6 12 -
14.01.2018 02:00:00 7,4 6,7 9 5 ESE 1020,8 12 -
14.01.2018 01:00:00 8,2 7,7 9 5 ESE 1020,8 12 -
14.01.2018 00:00:00 8,0 7,9 8 4 SSE 1021,1 12 -
13.01.2018 23:00:00 8,0 7,7 4 2 SSE 1021,1 12 -

tt = Température de l'air
td = dewpoint
ff = Vitesse du vent
dd = Direction du vent
ppp = reduced air pressure
vv = visibility
sd = Ensoleillement

stations d'obs. à proximité